Location: Newark
(47.3150°N, 5.1150°E)
Time: 22:25:50
(UTC+00:00)

Envisat - Pass Details

Date: 22 October 2019
Orbit: 764 x 766 km, 98.1° (Epoch: 14 November)

Event Time Altitude Azimuth Distance (km) Brightness Sun altitude
Rises 17:55:05 0° 175° (S) 3,220 6.2 -13.4°
Reaches altitude 10° 17:57:25 10° 179° (S) 2,298 5.5 -13.8°
Maximum altitude 18:02:25 60° 259° (W) 874 3.6 -14.6°
Drops below altitude 10° 18:07:28 10° 340° (NNW) 2,314 5.7 -15.5°
Sets 18:09:49 0° 344° (NNW) 3,245 6.5 -15.9°
